sat.trackr.live / text

‹ back to catalog

STARLINK-3100

NORAD 49144 · 2021-082Q

PAYLOAD ACTIVE UNKNOWN

§ Identity

Operator
Country
US
Launch date
2021-09-14
Launch site
AFWTR
Launch vehicle
Mass (kg)
RCS (m²)

Purposes: comms

External: N2YO · Heavens-Above · Gunter

§ Orbital elements

Epoch: 2026-09-13T00:43:04.864224Z

Period
96.11 min
Inclination
70.0004°
Eccentricity
0.0002830
Mean motion
14.98331331 rev/d
Perigee alt
570.1 km
Apogee alt
574.0 km
Semi-major
6,950.2 km
B*
1.0457e-5
RAAN
182.0932°
Arg perigee
269.2501°
Mean anomaly
90.8333°
Rev number
27,404

§ Raw data

STARLINK-31001 49144U 21082Q   26256.02991741  .00000032  00000+0  10457-4 0  99942 49144  70.0004 182.0932 0002830 269.2501  90.8333 14.98331331274047

JSON: /api/v1/satellites/49144 · /tle

For live sub-satellite position, see the globe view (requires WebGL).

§ Visibility from observer

Set your observer location to see the next 7 days of passes ≥ 10°. The values pass through the URL so the page stays shareable.

No JS? Fill the form by hand. The geolocation button needs JavaScript.

§ Radio — SatNOGS DB

ModeDescriptionDownlinkUplink
CW Ku-band 11325 MHz beacon 11.325 GHz
CW Ku-band 11575 MHz beacon 11.575 GHz
CW Ku-band 11950 MHz beacon 11.950 GHz
CW Ku-band 12450 MHz beacon 12.450 GHz

4 transmitters · refreshed weekly from db.satnogs.org